Year,Month,Day,Hour,Minute,Value (Times are PST for temperature in C)
2016,04,17,00,00,9.80
2016,04,17,00,01,9.80
2016,04,17,00,02,9.80
2016,04,17,00,03,9.80
2016,04,17,00,04,9.80
2016,04,17,00,05,9.80
2016,04,17,00,06,9.80
2016,04,17,00,07,9.70
2016,04,17,00,08,9.70
2016,04,17,00,09,9.70
2016,04,17,00,10,9.70
2016,04,17,00,11,9.70
2016,04,17,00,12,9.70
2016,04,17,00,13,9.70
2016,04,17,00,14,9.70
2016,04,17,00,15,9.70
2016,04,17,00,16,9.70
2016,04,17,00,17,9.70
2016,04,17,00,18,9.70
2016,04,17,00,19,9.70
2016,04,17,00,20,9.70
2016,04,17,00,21,9.70
2016,04,17,00,22,9.70
2016,04,17,00,23,9.70
2016,04,17,00,24,9.70
2016,04,17,00,25,9.70
2016,04,17,00,26,9.70
2016,04,17,00,27,9.70
2016,04,17,00,28,9.70
2016,04,17,00,29,9.70
2016,04,17,00,30,9.70
2016,04,17,00,31,9.70
2016,04,17,00,32,9.70
2016,04,17,00,33,9.70
2016,04,17,00,34,9.60
2016,04,17,00,35,9.60
2016,04,17,00,36,9.60
2016,04,17,00,37,9.60
2016,04,17,00,38,9.60
2016,04,17,00,39,9.60
2016,04,17,00,40,9.60
2016,04,17,00,41,9.60
2016,04,17,00,42,9.60
2016,04,17,00,43,9.60
2016,04,17,00,44,9.60
2016,04,17,00,45,9.60
2016,04,17,00,46,9.60
2016,04,17,00,47,9.60
2016,04,17,00,48,9.60
2016,04,17,00,49,9.60
2016,04,17,00,50,9.60
2016,04,17,00,51,9.60
2016,04,17,00,52,9.60
2016,04,17,00,53,9.60
2016,04,17,00,54,9.60
2016,04,17,00,55,9.60
2016,04,17,00,56,9.60
2016,04,17,00,57,9.60
2016,04,17,00,58,9.60
2016,04,17,00,59,9.60
2016,04,17,01,00,9.60
2016,04,17,01,01,9.60
2016,04,17,01,02,9.60
2016,04,17,01,03,9.60
2016,04,17,01,04,9.60
2016,04,17,01,05,9.60
2016,04,17,01,06,9.60
2016,04,17,01,07,9.50
2016,04,17,01,08,9.50
2016,04,17,01,09,9.50
2016,04,17,01,10,9.50
2016,04,17,01,11,9.50
2016,04,17,01,12,9.50
2016,04,17,01,13,9.40
2016,04,17,01,14,9.40
2016,04,17,01,15,9.40
2016,04,17,01,16,9.40
2016,04,17,01,17,9.40
2016,04,17,01,18,9.40
2016,04,17,01,19,9.40
2016,04,17,01,20,9.40
2016,04,17,01,21,9.40
2016,04,17,01,22,9.40
2016,04,17,01,23,9.40
2016,04,17,01,24,9.40
2016,04,17,01,25,9.40
2016,04,17,01,26,9.40
2016,04,17,01,27,9.40
2016,04,17,01,28,9.40
2016,04,17,01,29,9.40
2016,04,17,01,30,9.40
2016,04,17,01,31,9.40
2016,04,17,01,32,9.40
2016,04,17,01,33,9.40
2016,04,17,01,34,9.40
2016,04,17,01,35,9.40
2016,04,17,01,36,9.40
2016,04,17,01,37,9.40
2016,04,17,01,38,9.40
2016,04,17,01,39,9.40
2016,04,17,01,40,9.40
2016,04,17,01,41,9.40
2016,04,17,01,42,9.40
2016,04,17,01,43,9.30
2016,04,17,01,44,9.30
2016,04,17,01,45,9.30
2016,04,17,01,46,9.30
2016,04,17,01,47,9.30
2016,04,17,01,48,9.30
2016,04,17,01,49,9.30
2016,04,17,01,50,9.30
2016,04,17,01,51,9.30
2016,04,17,01,52,9.30
2016,04,17,01,53,9.30
2016,04,17,01,54,9.30
2016,04,17,01,55,9.30
2016,04,17,01,56,9.30
2016,04,17,01,57,9.30
2016,04,17,01,58,9.30
2016,04,17,01,59,9.30
2016,04,17,02,00,9.30
2016,04,17,02,01,9.30
2016,04,17,02,02,9.30
2016,04,17,02,03,9.30
2016,04,17,02,04,9.30
2016,04,17,02,05,9.20
2016,04,17,02,06,9.20
2016,04,17,02,07,9.20
2016,04,17,02,08,9.20
2016,04,17,02,09,9.20
2016,04,17,02,10,9.20
2016,04,17,02,11,9.20
2016,04,17,02,12,9.20
2016,04,17,02,13,9.20
2016,04,17,02,14,9.20
2016,04,17,02,15,9.20
2016,04,17,02,16,9.20
2016,04,17,02,17,9.20
2016,04,17,02,18,9.20
2016,04,17,02,19,9.10
2016,04,17,02,20,9.10
2016,04,17,02,21,9.10
2016,04,17,02,22,9.10
2016,04,17,02,23,9.10
2016,04,17,02,24,9.10
2016,04,17,02,25,9.10
2016,04,17,02,26,9.10
2016,04,17,02,27,9.10
2016,04,17,02,28,9.10
2016,04,17,02,29,9.10
2016,04,17,02,30,9.10
2016,04,17,02,31,9.10
2016,04,17,02,32,9.10
2016,04,17,02,33,9.10
2016,04,17,02,34,9.10
2016,04,17,02,35,9.10
2016,04,17,02,36,9.10
2016,04,17,02,37,9.10
2016,04,17,02,38,9.10
2016,04,17,02,39,9.10
2016,04,17,02,40,9.10
2016,04,17,02,41,9.10
2016,04,17,02,42,9.10
2016,04,17,02,43,9.10
2016,04,17,02,44,9.10
2016,04,17,02,45,9.10
2016,04,17,02,46,9.10
2016,04,17,02,47,9.00
2016,04,17,02,48,9.00
2016,04,17,02,49,9.00
2016,04,17,02,50,9.00
2016,04,17,02,51,9.00
2016,04,17,02,52,9.00
2016,04,17,02,53,9.00
2016,04,17,02,54,9.00
2016,04,17,02,55,9.00
2016,04,17,02,56,9.00
2016,04,17,02,57,9.00
2016,04,17,02,58,9.00
2016,04,17,02,59,9.00
2016,04,17,03,00,9.00
2016,04,17,03,01,9.00
2016,04,17,03,02,9.00
2016,04,17,03,03,9.00
2016,04,17,03,05,9.00
2016,04,17,03,06,9.00
2016,04,17,03,07,9.00
2016,04,17,03,08,8.90
2016,04,17,03,09,8.90
2016,04,17,03,10,8.90
2016,04,17,03,11,8.90
2016,04,17,03,12,8.90
2016,04,17,03,13,8.90
2016,04,17,03,14,8.90
2016,04,17,03,15,8.90
2016,04,17,03,16,8.90
2016,04,17,03,17,8.90
2016,04,17,03,18,8.90
2016,04,17,03,19,8.90
2016,04,17,03,20,8.90
2016,04,17,03,21,8.90
2016,04,17,03,22,8.90
2016,04,17,03,23,8.90
2016,04,17,03,24,8.90
2016,04,17,03,25,8.90
2016,04,17,03,26,8.90
2016,04,17,03,27,8.90
2016,04,17,03,28,8.90
2016,04,17,03,29,8.90
2016,04,17,03,30,8.90
2016,04,17,03,31,8.80
2016,04,17,03,32,8.80
2016,04,17,03,33,8.80
2016,04,17,03,34,8.80
2016,04,17,03,35,8.80
2016,04,17,03,36,8.80
2016,04,17,03,37,8.80
2016,04,17,03,38,8.80
2016,04,17,03,39,8.80
2016,04,17,03,40,8.80
2016,04,17,03,41,8.80
2016,04,17,03,42,8.80
2016,04,17,03,43,8.80
2016,04,17,03,44,8.80
2016,04,17,03,45,8.80
2016,04,17,03,46,8.80
2016,04,17,03,47,8.80
2016,04,17,03,48,8.80
2016,04,17,03,49,8.80
2016,04,17,03,50,8.80
2016,04,17,03,51,8.80
2016,04,17,03,52,8.80
2016,04,17,03,53,8.80
2016,04,17,03,54,8.80
2016,04,17,03,55,8.80
2016,04,17,03,56,8.80
2016,04,17,03,57,8.70
2016,04,17,03,58,8.70
2016,04,17,03,59,8.70
2016,04,17,04,00,8.70
2016,04,17,04,01,8.70
2016,04,17,04,02,8.70
2016,04,17,04,03,8.70
2016,04,17,04,04,8.70
2016,04,17,04,05,8.70
2016,04,17,04,06,8.70
2016,04,17,04,07,8.70
2016,04,17,04,08,8.70
2016,04,17,04,09,8.70
2016,04,17,04,10,8.70
2016,04,17,04,11,8.70
2016,04,17,04,12,8.70
2016,04,17,04,13,8.70
2016,04,17,04,14,8.70
2016,04,17,04,15,8.70
2016,04,17,04,16,8.70
2016,04,17,04,17,8.70
2016,04,17,04,18,8.70
2016,04,17,04,19,8.70
2016,04,17,04,20,8.70
2016,04,17,04,21,8.70
2016,04,17,04,22,8.70
2016,04,17,04,23,8.70
2016,04,17,04,24,8.70
2016,04,17,04,25,8.70
2016,04,17,04,26,8.70
2016,04,17,04,27,8.70
2016,04,17,04,28,8.70
2016,04,17,04,29,8.70
2016,04,17,04,30,8.70
2016,04,17,04,31,8.70
2016,04,17,04,32,8.70
2016,04,17,04,33,8.70
2016,04,17,04,34,8.70
2016,04,17,04,35,8.70
2016,04,17,04,36,8.70
2016,04,17,04,37,8.70
2016,04,17,04,38,8.60
2016,04,17,04,39,8.60
2016,04,17,04,40,8.60
2016,04,17,04,41,8.60
2016,04,17,04,42,8.60
2016,04,17,04,43,8.60
2016,04,17,04,44,8.60
2016,04,17,04,45,8.60
2016,04,17,04,46,8.60
2016,04,17,04,47,8.60
2016,04,17,04,48,8.70
2016,04,17,04,49,8.70
2016,04,17,04,50,8.60
2016,04,17,04,51,8.60
2016,04,17,04,52,8.60
2016,04,17,04,53,8.60
2016,04,17,04,54,8.60
2016,04,17,04,55,8.60
2016,04,17,04,56,8.60
2016,04,17,04,57,8.60
2016,04,17,04,58,8.60
2016,04,17,04,59,8.60
2016,04,17,05,00,8.60
2016,04,17,05,01,8.60
2016,04,17,05,02,8.60
2016,04,17,05,03,8.60
2016,04,17,05,04,8.60
2016,04,17,05,05,8.60
2016,04,17,05,06,8.50
2016,04,17,05,07,8.50
2016,04,17,05,08,8.50
2016,04,17,05,09,8.50
2016,04,17,05,10,8.50
2016,04,17,05,11,8.50
2016,04,17,05,12,8.50
2016,04,17,05,13,8.40
2016,04,17,05,14,8.40
2016,04,17,05,15,8.50
2016,04,17,05,16,8.40
2016,04,17,05,17,8.50
2016,04,17,05,18,8.40
2016,04,17,05,19,8.40
2016,04,17,05,20,8.40
2016,04,17,05,21,8.40
2016,04,17,05,22,8.40
2016,04,17,05,23,8.40
2016,04,17,05,24,8.40
2016,04,17,05,25,8.40
2016,04,17,05,26,8.40
2016,04,17,05,27,8.40
2016,04,17,05,28,8.40
2016,04,17,05,29,8.40
2016,04,17,05,30,8.40
2016,04,17,05,31,8.40
2016,04,17,05,32,8.40
2016,04,17,05,33,8.30
2016,04,17,05,34,8.30
2016,04,17,05,35,8.30
2016,04,17,05,36,8.30
2016,04,17,05,37,8.30
2016,04,17,05,38,8.30
2016,04,17,05,39,8.30
2016,04,17,05,40,8.30
2016,04,17,05,41,8.30
2016,04,17,05,42,8.30
2016,04,17,05,43,8.30
2016,04,17,05,44,8.30
2016,04,17,05,45,8.30
2016,04,17,05,46,8.30
2016,04,17,05,47,8.30
2016,04,17,05,48,8.30
2016,04,17,05,49,8.30
2016,04,17,05,50,8.30
2016,04,17,05,51,8.30
2016,04,17,05,52,8.30
2016,04,17,05,53,8.30
2016,04,17,05,54,8.30
2016,04,17,05,55,8.30
2016,04,17,05,56,8.30
2016,04,17,05,57,8.30
2016,04,17,05,58,8.30
2016,04,17,05,59,8.20
2016,04,17,06,00,8.20
2016,04,17,06,01,8.20
2016,04,17,06,02,8.20
2016,04,17,06,03,8.20
2016,04,17,06,04,8.20
2016,04,17,06,05,8.20
2016,04,17,06,06,8.20
2016,04,17,06,07,8.20
2016,04,17,06,08,8.20
2016,04,17,06,09,8.20
2016,04,17,06,10,8.20
2016,04,17,06,11,8.20
2016,04,17,06,12,8.20
2016,04,17,06,13,8.20
2016,04,17,06,14,8.20
2016,04,17,06,15,8.20
2016,04,17,06,16,8.10
2016,04,17,06,17,8.10
2016,04,17,06,18,8.10
2016,04,17,06,19,8.10
2016,04,17,06,20,8.10
2016,04,17,06,21,8.10
2016,04,17,06,22,8.10
2016,04,17,06,23,8.10
2016,04,17,06,24,8.10
2016,04,17,06,25,8.10
2016,04,17,06,26,8.10
2016,04,17,06,27,8.10
2016,04,17,06,28,8.10
2016,04,17,06,29,8.00
2016,04,17,06,30,8.00
2016,04,17,06,31,8.00
2016,04,17,06,32,8.00
2016,04,17,06,33,8.00
2016,04,17,06,34,8.00
2016,04,17,06,35,8.00
2016,04,17,06,36,8.00
2016,04,17,06,37,8.00
2016,04,17,06,38,8.00
2016,04,17,06,39,7.90
2016,04,17,06,40,7.90
2016,04,17,06,41,7.90
2016,04,17,06,42,7.90
2016,04,17,06,43,7.90
2016,04,17,06,44,7.90
2016,04,17,06,45,7.90
2016,04,17,06,46,7.90
2016,04,17,06,47,7.90
2016,04,17,06,48,7.90
2016,04,17,06,49,7.90
2016,04,17,06,50,7.90
2016,04,17,06,51,7.90
2016,04,17,06,52,7.90
2016,04,17,06,53,7.90
2016,04,17,06,54,7.90
2016,04,17,06,56,7.90
2016,04,17,06,57,7.90
2016,04,17,06,58,7.90
2016,04,17,06,59,7.90
2016,04,17,07,00,7.90
2016,04,17,07,01,7.90
2016,04,17,07,02,7.90
2016,04,17,07,03,7.90
2016,04,17,07,04,7.90
2016,04,17,07,05,7.90
2016,04,17,07,06,7.90
2016,04,17,07,07,7.90
2016,04,17,07,08,7.90
2016,04,17,07,09,7.90
2016,04,17,07,10,7.90
2016,04,17,07,11,7.90
2016,04,17,07,12,7.90
2016,04,17,07,13,7.90
2016,04,17,07,14,7.90
2016,04,17,07,15,7.90
2016,04,17,07,16,7.90
2016,04,17,07,17,7.90
2016,04,17,07,18,7.90
2016,04,17,07,19,7.90
2016,04,17,07,20,7.90
2016,04,17,07,21,7.90
2016,04,17,07,22,7.90
2016,04,17,07,23,7.90
2016,04,17,07,24,7.90
2016,04,17,07,25,7.90
2016,04,17,07,26,7.90
2016,04,17,07,27,7.90
2016,04,17,07,28,7.90
2016,04,17,07,29,7.90
2016,04,17,07,30,7.90
2016,04,17,07,31,7.90
2016,04,17,07,32,7.90
2016,04,17,07,33,7.90
2016,04,17,07,34,7.90
2016,04,17,07,35,7.90
2016,04,17,07,36,7.90
2016,04,17,07,37,7.90
2016,04,17,07,38,7.90
2016,04,17,07,39,7.90
2016,04,17,07,40,7.90
2016,04,17,07,41,8.00
2016,04,17,07,42,8.00
2016,04,17,07,43,8.00
2016,04,17,07,44,8.00
2016,04,17,07,45,8.00
2016,04,17,07,46,8.00
2016,04,17,07,47,8.00
2016,04,17,07,48,8.10
2016,04,17,07,49,8.10
2016,04,17,07,50,8.10
2016,04,17,07,51,8.10
2016,04,17,07,52,8.10
2016,04,17,07,53,8.10
2016,04,17,07,54,8.10
2016,04,17,07,55,8.10
2016,04,17,07,56,8.20
2016,04,17,07,57,8.20
2016,04,17,07,58,8.20
2016,04,17,07,59,8.20
2016,04,17,08,00,8.20
2016,04,17,08,01,8.20
2016,04,17,08,02,8.30
2016,04,17,08,03,8.30
2016,04,17,08,04,8.30
2016,04,17,08,05,8.30
2016,04,17,08,06,8.30
2016,04,17,08,07,8.40
2016,04,17,08,08,8.40
2016,04,17,08,09,8.40
2016,04,17,08,10,8.40
2016,04,17,08,11,8.50
2016,04,17,08,12,8.50
2016,04,17,08,13,8.50
2016,04,17,08,14,8.60
2016,04,17,08,15,8.60
2016,04,17,08,16,8.70
2016,04,17,08,17,8.70
2016,04,17,08,18,8.70
2016,04,17,08,19,8.80
2016,04,17,08,20,8.80
2016,04,17,08,21,8.80
2016,04,17,08,22,8.90
2016,04,17,08,23,8.90
2016,04,17,08,24,8.90
2016,04,17,08,25,8.90
2016,04,17,08,26,9.00
2016,04,17,08,27,9.00
2016,04,17,08,28,9.00
2016,04,17,08,29,9.10
2016,04,17,08,30,9.10
2016,04,17,08,31,9.10
2016,04,17,08,32,9.10
2016,04,17,08,33,9.20
2016,04,17,08,34,9.20
2016,04,17,08,35,9.20
2016,04,17,08,36,9.30
2016,04,17,08,37,9.30
2016,04,17,08,38,9.40
2016,04,17,08,39,9.40
2016,04,17,08,40,9.50
2016,04,17,08,41,9.50
2016,04,17,08,42,9.50
2016,04,17,08,43,9.60
2016,04,17,08,44,9.60
2016,04,17,08,45,9.60
2016,04,17,08,46,9.70
2016,04,17,08,47,9.70
2016,04,17,08,48,9.70
2016,04,17,08,49,9.80
2016,04,17,08,50,9.80
2016,04,17,08,51,9.80
2016,04,17,08,52,9.80
2016,04,17,08,53,9.80
2016,04,17,08,54,9.80
2016,04,17,08,55,9.80
2016,04,17,08,56,9.80
2016,04,17,08,57,9.80
2016,04,17,08,58,9.80
2016,04,17,08,59,9.90
2016,04,17,09,00,9.90
2016,04,17,09,01,9.90
2016,04,17,09,02,10.00
2016,04,17,09,03,10.00
2016,04,17,09,04,10.00
2016,04,17,09,05,10.00
2016,04,17,09,06,10.10
2016,04,17,09,07,10.10
2016,04,17,09,08,10.10
2016,04,17,09,09,10.20
2016,04,17,09,10,10.20
2016,04,17,09,11,10.30
2016,04,17,09,12,10.30
2016,04,17,09,13,10.40
2016,04,17,09,14,10.40
2016,04,17,09,15,10.40
2016,04,17,09,16,10.50
2016,04,17,09,17,10.50
2016,04,17,09,18,10.60
2016,04,17,09,19,10.60
2016,04,17,09,20,10.60
2016,04,17,09,21,10.60
2016,04,17,09,22,10.60
2016,04,17,09,23,10.60
2016,04,17,09,24,10.60
2016,04,17,09,25,10.60
2016,04,17,09,26,10.60
2016,04,17,09,27,10.50
2016,04,17,09,28,10.50
2016,04,17,09,29,10.50
2016,04,17,09,30,10.60
2016,04,17,09,31,10.60
2016,04,17,09,32,10.60
2016,04,17,09,33,10.70
2016,04,17,09,34,10.70
2016,04,17,09,35,10.70
2016,04,17,09,36,10.80
2016,04,17,09,37,10.80
2016,04,17,09,38,10.90
2016,04,17,09,39,10.90
2016,04,17,09,40,11.00
2016,04,17,09,41,11.00
2016,04,17,09,42,11.00
2016,04,17,09,43,11.10
2016,04,17,09,44,11.10
2016,04,17,09,45,11.20
2016,04,17,09,46,11.20
2016,04,17,09,47,11.30
2016,04,17,09,48,11.30
2016,04,17,09,49,11.40
2016,04,17,09,50,11.40
2016,04,17,09,51,11.50
2016,04,17,09,52,11.50
2016,04,17,09,53,11.60
2016,04,17,09,54,11.60
2016,04,17,09,55,11.70
2016,04,17,09,56,11.70
2016,04,17,09,57,11.80
2016,04,17,09,58,11.80
2016,04,17,09,59,11.90
2016,04,17,10,00,11.90
2016,04,17,10,01,12.00
2016,04,17,10,02,12.00
2016,04,17,10,03,12.10
2016,04,17,10,04,12.20
2016,04,17,10,05,12.20
2016,04,17,10,06,12.30
2016,04,17,10,07,12.40
2016,04,17,10,08,12.50
2016,04,17,10,09,12.50
2016,04,17,10,10,12.60
2016,04,17,10,11,12.50
2016,04,17,10,12,12.50
2016,04,17,10,13,12.50
2016,04,17,10,14,12.50
2016,04,17,10,15,12.60
2016,04,17,10,16,12.60
2016,04,17,10,17,12.70
2016,04,17,10,18,12.70
2016,04,17,10,19,12.70
2016,04,17,10,20,12.80
2016,04,17,10,21,12.80
2016,04,17,10,22,12.90
2016,04,17,10,23,12.90
2016,04,17,10,24,12.90
2016,04,17,10,25,13.00
2016,04,17,10,26,13.00
2016,04,17,10,27,13.10
2016,04,17,10,28,13.20
2016,04,17,10,29,13.20
2016,04,17,10,30,13.30
2016,04,17,10,31,13.30
2016,04,17,10,32,13.40
2016,04,17,10,33,13.50
2016,04,17,10,34,13.50
2016,04,17,10,35,13.60
2016,04,17,10,36,13.60
2016,04,17,10,37,13.70
2016,04,17,10,38,13.70
2016,04,17,10,39,13.80
2016,04,17,10,40,13.80
2016,04,17,10,41,13.90
2016,04,17,10,42,13.90
2016,04,17,10,43,13.90
2016,04,17,10,44,14.00
2016,04,17,10,45,14.00
2016,04,17,10,46,14.10
2016,04,17,10,47,14.10
2016,04,17,10,48,14.20
2016,04,17,10,49,14.30
2016,04,17,10,50,14.30
2016,04,17,10,51,14.40
2016,04,17,10,52,14.50
2016,04,17,10,53,14.50
2016,04,17,10,54,14.60
2016,04,17,10,55,14.60
2016,04,17,10,56,14.60
2016,04,17,10,57,14.70
2016,04,17,10,58,14.70
2016,04,17,10,59,14.70
2016,04,17,11,00,14.70
2016,04,17,11,01,14.80
2016,04,17,11,02,14.80
2016,04,17,11,03,14.80
2016,04,17,11,04,14.80
2016,04,17,11,05,14.80
2016,04,17,11,06,14.80
2016,04,17,11,07,14.80
2016,04,17,11,08,14.80
2016,04,17,11,09,14.90
2016,04,17,11,10,14.90
2016,04,17,11,11,14.90
2016,04,17,11,12,14.80
2016,04,17,11,13,14.80
2016,04,17,11,14,14.80
2016,04,17,11,15,14.80
2016,04,17,11,16,14.80
2016,04,17,11,17,14.90
2016,04,17,11,18,14.90
2016,04,17,11,19,14.90
2016,04,17,11,20,14.90
2016,04,17,11,21,14.90
2016,04,17,11,22,14.90
2016,04,17,11,23,14.90
2016,04,17,11,24,15.00
2016,04,17,11,25,15.10
2016,04,17,11,26,15.10
2016,04,17,11,27,15.20
2016,04,17,11,28,15.20
2016,04,17,11,29,15.20
2016,04,17,11,30,15.20
2016,04,17,11,31,15.20
2016,04,17,11,32,15.20
2016,04,17,11,33,15.20
2016,04,17,11,34,15.20
2016,04,17,11,35,15.20
2016,04,17,11,36,15.20
2016,04,17,11,37,15.20
2016,04,17,11,38,15.20
2016,04,17,11,39,15.20
2016,04,17,11,40,15.10
2016,04,17,11,41,15.10
2016,04,17,11,42,15.10
2016,04,17,11,43,15.10
2016,04,17,11,44,15.20
2016,04,17,11,45,15.20
2016,04,17,11,46,15.20
2016,04,17,11,47,15.30
2016,04,17,11,48,15.30
2016,04,17,11,49,15.30
2016,04,17,11,50,15.30
2016,04,17,11,51,15.40
2016,04,17,11,52,15.40
2016,04,17,11,53,15.40
2016,04,17,11,54,15.50
2016,04,17,11,55,15.50
2016,04,17,11,56,15.60
2016,04,17,11,57,15.60
2016,04,17,11,58,15.70
2016,04,17,11,59,15.70
2016,04,17,12,00,15.70
2016,04,17,12,01,15.70
2016,04,17,12,02,15.70
2016,04,17,12,03,15.80
2016,04,17,12,04,15.80
2016,04,17,12,05,15.80
2016,04,17,12,06,15.80
2016,04,17,12,07,15.90
2016,04,17,12,08,15.90
2016,04,17,12,09,15.90
2016,04,17,12,10,15.80
2016,04,17,12,11,15.90
2016,04,17,12,12,15.90
2016,04,17,12,13,15.90
2016,04,17,12,14,15.90
2016,04,17,12,15,15.90
2016,04,17,12,16,15.90
2016,04,17,12,17,15.90
2016,04,17,12,18,15.90
2016,04,17,12,19,15.90
2016,04,17,12,20,15.90
2016,04,17,12,21,15.90
2016,04,17,12,22,15.80
2016,04,17,12,23,15.80
2016,04,17,12,24,15.80
2016,04,17,12,25,15.70
2016,04,17,12,26,15.70
2016,04,17,12,27,15.70
2016,04,17,12,28,15.70
2016,04,17,12,29,15.70
2016,04,17,12,30,15.70
2016,04,17,12,31,15.70
2016,04,17,12,32,15.70
2016,04,17,12,33,15.80
2016,04,17,12,34,15.80
2016,04,17,12,35,15.80
2016,04,17,12,36,15.80
2016,04,17,12,37,15.80
2016,04,17,12,38,15.80
2016,04,17,12,39,15.80
2016,04,17,12,40,15.80
2016,04,17,12,41,15.80
2016,04,17,12,42,15.80
2016,04,17,12,43,15.90
2016,04,17,12,44,15.90
2016,04,17,12,45,15.90
2016,04,17,12,46,15.80
2016,04,17,12,47,15.80
2016,04,17,12,48,15.80
2016,04,17,12,49,15.80
2016,04,17,12,50,15.80
2016,04,17,12,51,15.80
2016,04,17,12,52,15.90
2016,04,17,12,53,16.00
2016,04,17,12,54,16.10
2016,04,17,12,55,16.10
2016,04,17,12,56,16.20
2016,04,17,12,57,16.30
2016,04,17,12,58,16.40
2016,04,17,12,59,16.40
2016,04,17,13,00,16.40
2016,04,17,13,01,16.50
2016,04,17,13,02,16.60
2016,04,17,13,03,16.60
2016,04,17,13,04,16.70
2016,04,17,13,05,16.70
2016,04,17,13,06,16.70
2016,04,17,13,07,16.70
2016,04,17,13,08,16.60
2016,04,17,13,09,16.60
2016,04,17,13,10,16.50
2016,04,17,13,11,16.50
2016,04,17,13,12,16.40
2016,04,17,13,13,16.40
2016,04,17,13,14,16.40
2016,04,17,13,15,16.40
2016,04,17,13,16,16.30
2016,04,17,13,17,16.30
2016,04,17,13,18,16.20
2016,04,17,13,19,16.20
2016,04,17,13,20,16.20
2016,04,17,13,21,16.30
2016,04,17,13,22,16.30
2016,04,17,13,23,16.30
2016,04,17,13,24,16.30
2016,04,17,13,25,16.30
2016,04,17,13,26,16.30
2016,04,17,13,27,16.30
2016,04,17,13,28,16.30
2016,04,17,13,29,16.30
2016,04,17,13,30,16.40
2016,04,17,13,31,16.40
2016,04,17,13,32,16.40
2016,04,17,13,33,16.40
2016,04,17,13,34,16.40
2016,04,17,13,35,16.40
2016,04,17,13,36,16.40
2016,04,17,13,37,16.40
2016,04,17,13,38,16.40
2016,04,17,13,39,16.40
2016,04,17,13,40,16.50
2016,04,17,13,41,16.50
2016,04,17,13,42,16.60
2016,04,17,13,43,16.60
2016,04,17,13,44,16.60
2016,04,17,13,45,16.70
2016,04,17,13,46,16.80
2016,04,17,13,47,16.80
2016,04,17,13,48,16.80
2016,04,17,13,49,16.90
2016,04,17,13,50,17.00
2016,04,17,13,51,17.00
2016,04,17,13,52,17.00
2016,04,17,13,53,17.00
2016,04,17,13,54,16.90
2016,04,17,13,55,16.90
2016,04,17,13,56,16.90
2016,04,17,13,57,17.00
2016,04,17,13,58,17.00
2016,04,17,13,59,17.00
2016,04,17,14,00,17.00
2016,04,17,14,01,17.00
2016,04,17,14,02,16.90
2016,04,17,14,03,17.00
2016,04,17,14,04,17.00
2016,04,17,14,05,17.00
2016,04,17,14,06,17.10
2016,04,17,14,07,17.10
2016,04,17,14,08,17.10
2016,04,17,14,09,17.10
2016,04,17,14,10,17.10
2016,04,17,14,11,17.20
2016,04,17,14,12,17.20
2016,04,17,14,13,17.20
2016,04,17,14,14,17.20
2016,04,17,14,15,17.20
2016,04,17,14,16,17.20
2016,04,17,14,17,17.20
2016,04,17,14,18,17.10
2016,04,17,14,19,17.10
2016,04,17,14,20,17.10
2016,04,17,14,21,17.10
2016,04,17,14,22,17.10
2016,04,17,14,23,17.10
2016,04,17,14,24,17.20
2016,04,17,14,25,17.20
2016,04,17,14,26,17.20
2016,04,17,14,27,17.20
2016,04,17,14,28,17.20
2016,04,17,14,29,17.20
2016,04,17,14,30,17.20
2016,04,17,14,31,17.20
2016,04,17,14,32,17.20
2016,04,17,14,33,17.20
2016,04,17,14,34,17.30
2016,04,17,14,35,17.30
2016,04,17,14,36,17.40
2016,04,17,14,37,17.40
2016,04,17,14,38,17.40
2016,04,17,14,39,17.50
2016,04,17,14,40,17.50
2016,04,17,14,41,17.50
2016,04,17,14,42,17.50
2016,04,17,14,43,17.50
2016,04,17,14,44,17.50
2016,04,17,14,45,17.50
2016,04,17,14,46,17.40
2016,04,17,14,47,17.40
2016,04,17,14,48,17.40
2016,04,17,14,49,17.40
2016,04,17,14,50,17.40
2016,04,17,14,51,17.30
2016,04,17,14,52,17.30
2016,04,17,14,53,17.30
2016,04,17,14,54,17.20
2016,04,17,14,55,17.20
2016,04,17,14,56,17.20
2016,04,17,14,57,17.20
2016,04,17,14,58,17.20
2016,04,17,14,59,17.20
2016,04,17,15,00,17.20
2016,04,17,15,01,17.20
2016,04,17,15,02,17.10
2016,04,17,15,03,17.10
2016,04,17,15,04,17.20
2016,04,17,15,05,17.20
2016,04,17,15,06,17.20
2016,04,17,15,07,17.20
2016,04,17,15,08,17.30
2016,04,17,15,09,17.30
2016,04,17,15,10,17.30
2016,04,17,15,11,17.30
2016,04,17,15,12,17.40
2016,04,17,15,13,17.40
2016,04,17,15,14,17.30
2016,04,17,15,15,17.40
2016,04,17,15,16,17.40
2016,04,17,15,17,17.40
2016,04,17,15,18,17.40
2016,04,17,15,19,17.40
2016,04,17,15,20,17.40
2016,04,17,15,21,17.40
2016,04,17,15,22,17.40
2016,04,17,15,23,17.30
2016,04,17,15,24,17.30
2016,04,17,15,25,17.30
2016,04,17,15,26,17.20
2016,04,17,15,27,17.20
2016,04,17,15,28,17.20
2016,04,17,15,29,17.20
2016,04,17,15,30,17.20
2016,04,17,15,31,17.30
2016,04,17,15,32,17.30
2016,04,17,15,33,17.40
2016,04,17,15,34,17.40
2016,04,17,15,35,17.50
2016,04,17,15,36,17.50
2016,04,17,15,37,17.60
2016,04,17,15,38,17.60
2016,04,17,15,39,17.60
2016,04,17,15,40,17.60
2016,04,17,15,41,17.60
2016,04,17,15,42,17.60
2016,04,17,15,43,17.60
2016,04,17,15,44,17.60
2016,04,17,15,45,17.70
2016,04,17,15,46,17.70
2016,04,17,15,47,17.70
2016,04,17,15,48,17.70
2016,04,17,15,49,17.70
2016,04,17,15,50,17.80
2016,04,17,15,51,17.80
2016,04,17,15,52,17.80
2016,04,17,15,53,17.80
2016,04,17,15,54,17.80
2016,04,17,15,55,17.80
2016,04,17,15,56,17.80
2016,04,17,15,57,17.80
2016,04,17,15,58,17.80
2016,04,17,15,59,17.80
2016,04,17,16,00,17.80
2016,04,17,16,01,17.90
2016,04,17,16,02,17.90
2016,04,17,16,03,18.00
2016,04,17,16,04,18.00
2016,04,17,16,05,18.10
2016,04,17,16,06,18.10
2016,04,17,16,07,18.10
2016,04,17,16,08,18.10
2016,04,17,16,09,18.10
2016,04,17,16,10,18.10
2016,04,17,16,11,18.10
2016,04,17,16,12,18.10
2016,04,17,16,13,18.10
2016,04,17,16,14,18.10
2016,04,17,16,15,18.20
2016,04,17,16,16,18.20
2016,04,17,16,17,18.20
2016,04,17,16,18,18.30
2016,04,17,16,19,18.30
2016,04,17,16,20,18.30
2016,04,17,16,21,18.20
2016,04,17,16,22,18.20
2016,04,17,16,23,18.20
2016,04,17,16,24,18.20
2016,04,17,16,25,18.20
2016,04,17,16,26,18.20
2016,04,17,16,27,18.20
2016,04,17,16,28,18.20
2016,04,17,16,29,18.30
2016,04,17,16,30,18.30
2016,04,17,16,31,18.30
2016,04,17,16,32,18.20
2016,04,17,16,33,18.20
2016,04,17,16,34,18.20
2016,04,17,16,35,18.20
2016,04,17,16,36,18.20
2016,04,17,16,37,18.20
2016,04,17,16,38,18.20
2016,04,17,16,39,18.20
2016,04,17,16,40,18.20
2016,04,17,16,41,18.10
2016,04,17,16,42,18.10
2016,04,17,16,43,18.20
2016,04,17,16,44,18.20
2016,04,17,16,45,18.20
2016,04,17,16,46,18.20
2016,04,17,16,47,18.20
2016,04,17,16,48,18.20
2016,04,17,16,49,18.20
2016,04,17,16,50,18.20
2016,04,17,16,51,18.20
2016,04,17,16,52,18.20
2016,04,17,16,53,18.10
2016,04,17,16,54,18.10
2016,04,17,16,55,18.10
2016,04,17,16,56,18.10
2016,04,17,16,57,18.10
2016,04,17,16,58,18.10
2016,04,17,16,59,18.10
2016,04,17,17,00,18.10
2016,04,17,17,01,18.10
2016,04,17,17,02,18.20
2016,04,17,17,03,18.20
2016,04,17,17,04,18.20
2016,04,17,17,05,18.20
2016,04,17,17,06,18.20
2016,04,17,17,07,18.20
2016,04,17,17,08,18.30
2016,04,17,17,09,18.30
2016,04,17,17,10,18.20
2016,04,17,17,11,18.20
2016,04,17,17,12,18.20
2016,04,17,17,13,18.20
2016,04,17,17,14,18.20
2016,04,17,17,15,18.20
2016,04,17,17,16,18.20
2016,04,17,17,17,18.20
2016,04,17,17,18,18.20
2016,04,17,17,19,18.10
2016,04,17,17,20,18.10
2016,04,17,17,21,18.10
2016,04,17,17,22,18.10
2016,04,17,17,23,18.10
2016,04,17,17,24,18.10
2016,04,17,17,25,18.10
2016,04,17,17,26,18.10
2016,04,17,17,27,18.10
2016,04,17,17,28,18.10
2016,04,17,17,29,18.10
2016,04,17,17,30,18.10
2016,04,17,17,31,18.10
2016,04,17,17,32,18.20
2016,04,17,17,33,18.20
2016,04,17,17,34,18.20
2016,04,17,17,35,18.20
2016,04,17,17,36,18.20
2016,04,17,17,37,18.20
2016,04,17,17,38,18.20
2016,04,17,17,39,18.20
2016,04,17,17,40,18.20
2016,04,17,17,41,18.20
2016,04,17,17,42,18.20
2016,04,17,17,43,18.20
2016,04,17,17,44,18.20